Location: *
(40.7765°S, 106.5327°E)
Time: 14:56:36
(UTC+00:00)

Cosmos 2369 - Pass Details

Date: 26 May 2022
Orbit: 838 x 857 km, 71.0° (Epoch: 04 July)

Event Time Altitude Azimuth Distance (km) Brightness Sun altitude
Rises 11:35:36 0° 207° (SSW) 3,442 7.1 -21.9°
Reaches altitude 10° 11:38:06 10° 210° (SSW) 2,497 6.4 -22.3°
Maximum altitude 11:43:46 64° 289° (WNW) 938 4.1 -23.4°
Drops below altitude 10° 11:49:20 10° 10° (N) 2,457 6.1 -24.4°
Sets 11:51:46 0° 12° (NNE) 3,382 6.8 -24.9°
